Location: Santiago
(33.4378°S, 70.6505°W)
Time: 08:53:51
(UTC+00:00)

ISS - Pass Details

Date: 08 October 2024
Orbit: 412 x 424 km, 51.6° (Epoch: 09 October)

Event Time Altitude Azimuth Distance (km) Brightness Sun altitude
Exits shadow 08:40:41 16° 211° (SSW) 1,228 -1.5 -18.8°
Maximum altitude 08:43:15 48° 139° (SE) 564 -2.8 -18.3°
Drops below altitude 10° 08:46:32 10° 63° (ENE) 1,504 -0.4 -17.7°
Sets 08:48:40 0° 57° (ENE) 2,359 0.6 -17.2°
